LKN24 WIII-WATO

Flight info

Callsign LKN24
Flight time 2h 6m
Altitude 37000
Route CA2B CA T3 ANY W45 BA G461 SBR W34 ENTAS W43 MUBOT W42 NMA W69 HUMAI HUMAI2A
Aircraft B737/M-V/N

Departure

Time 2026-04-18 05:59
Airport Soekarno-Hatta International Airport (WIII)

Arrival

Time 2026-04-18 08:06
Airport Komodo Airport (WATO)
Time Latitude Longitude Altitude Speed Heading
2026-04-18 05:43 -6.13291 106.65739 47 ft 0 kts 309°
2026-04-18 05:51 -6.13293 106.65742 47 ft 1 kts 309°
2026-04-18 05:51 -6.13301 106.65752 47 ft 0 kts 308°
2026-04-18 05:52 -6.13308 106.65761 47 ft 2 kts 293°
2026-04-18 05:52 -6.13312 106.65776 47 ft 2 kts 272°
2026-04-18 05:52 -6.13310 106.65791 47 ft 2 kts 250°
2026-04-18 05:52 -6.13302 106.65804 47 ft 2 kts 228°
2026-04-18 05:53 -6.13291 106.65813 47 ft 2 kts 206°
2026-04-18 05:53 -6.13280 106.65817 47 ft 0 kts 191°
2026-04-18 05:53 -6.13273 106.65819 47 ft 0 kts 187°
2026-04-18 05:55 -6.13277 106.65818 47 ft 3 kts 187°
2026-04-18 05:55 -6.13323 106.65815 46 ft 9 kts 174°
2026-04-18 05:55 -6.13399 106.65783 47 ft 15 kts 244°
2026-04-18 05:56 -6.13447 106.65658 47 ft 22 kts 249°
2026-04-18 05:56 -6.13516 106.65488 47 ft 29 kts 248°
2026-04-18 05:56 -6.13595 106.65285 47 ft 31 kts 249°
2026-04-18 05:56 -6.13676 106.65080 47 ft 30 kts 247°
2026-04-18 05:57 -6.13830 106.64687 47 ft 28 kts 248°
2026-04-18 05:57 -6.13909 106.64510 46 ft 19 kts 248°
2026-04-18 05:57 -6.13992 106.64440 47 ft 17 kts 161°
2026-04-18 05:58 -6.14102 106.64484 47 ft 16 kts 155°
2026-04-18 05:58 -6.14170 106.64559 47 ft 15 kts 90°
2026-04-18 05:58 -6.14138 106.64655 47 ft 14 kts 68°
2026-04-18 05:58 -6.14041 106.64899 47 ft 73 kts 68°
2026-04-18 05:59 -6.13768 106.65585 47 ft 138 kts 68°
2026-04-18 05:59 -6.13376 106.66589 433 ft 161 kts 68°
2026-04-18 05:59 -6.12973 106.67659 1047 ft 173 kts 69°
2026-04-18 05:59 -6.12526 106.68780 1796 ft 177 kts 64°
2026-04-18 06:00 -6.11949 106.69914 2523 ft 187 kts 61°
2026-04-18 06:00 -6.11394 106.71161 3139 ft 204 kts 67°
2026-04-18 06:00 -6.10881 106.72520 3803 ft 219 kts 68°
2026-04-18 06:00 -6.10465 106.74046 4447 ft 236 kts 82°
2026-04-18 06:01 -6.10383 106.75729 5194 ft 250 kts 86°
2026-04-18 06:01 -6.10354 106.77520 5879 ft 266 kts 86°
2026-04-18 06:01 -6.10317 106.79395 6794 ft 271 kts 86°
2026-04-18 06:01 -6.10269 106.81292 7708 ft 275 kts 86°
2026-04-18 06:02 -6.10218 106.83209 8605 ft 280 kts 86°
2026-04-18 06:02 -6.10167 106.85171 9473 ft 285 kts 87°
2026-04-18 06:02 -6.10115 106.87173 10265 ft 293 kts 87°
2026-04-18 06:02 -6.10059 106.89247 10840 ft 307 kts 88°
2026-04-18 06:03 -6.09999 106.91474 11379 ft 323 kts 88°
2026-04-18 06:03 -6.09934 106.93757 11880 ft 338 kts 88°
2026-04-18 06:03 -6.09866 106.96194 12455 ft 351 kts 89°
2026-04-18 06:03 -6.10069 106.98619 13206 ft 354 kts 101°
2026-04-18 06:04 -6.10883 107.00969 14082 ft 355 kts 115°
2026-04-18 06:04 -6.12214 107.03054 14887 ft 357 kts 127°
2026-04-18 06:04 -6.13940 107.04850 15575 ft 361 kts 137°
2026-04-18 06:04 -6.16060 107.06226 16177 ft 370 kts 151°
2026-04-18 06:05 -6.18463 107.07227 16905 ft 374 kts 155°
2026-04-18 06:05 -6.20939 107.08115 17540 ft 378 kts 157°
2026-04-18 06:05 -6.23451 107.08965 18188 ft 381 kts 158°
2026-04-18 06:05 -6.25973 107.09807 18791 ft 385 kts 158°
2026-04-18 06:06 -6.28535 107.10672 19455 ft 387 kts 157°
2026-04-18 06:06 -6.31075 107.11548 20052 ft 389 kts 157°
2026-04-18 06:06 -6.33668 107.12438 20644 ft 391 kts 158°
2026-04-18 06:06 -6.36244 107.13323 21216 ft 393 kts 156°
2026-04-18 06:07 -6.38741 107.14426 21768 ft 393 kts 148°
2026-04-18 06:07 -6.41012 107.15987 22257 ft 394 kts 136°
2026-04-18 06:07 -6.42890 107.17983 22720 ft 397 kts 126°
2026-04-18 06:07 -6.44423 107.20328 23192 ft 399 kts 118°
2026-04-18 06:08 -6.45728 107.22794 23589 ft 404 kts 115°
2026-04-18 06:08 -6.46962 107.25340 24053 ft 407 kts 114°
2026-04-18 06:08 -6.48190 107.27935 24496 ft 411 kts 114°
2026-04-18 06:08 -6.49415 107.30522 24943 ft 414 kts 114°
2026-04-18 06:09 -6.50659 107.33135 25347 ft 418 kts 114°
2026-04-18 06:09 -6.51925 107.35779 25775 ft 421 kts 114°
2026-04-18 06:09 -6.53209 107.38446 25873 ft 426 kts 114°
2026-04-18 06:09 -6.54544 107.41111 25892 ft 423 kts 115°
2026-04-18 06:10 -6.55784 107.43758 25902 ft 421 kts 111°
2026-04-18 06:10 -6.56768 107.46546 25914 ft 420 kts 104°
2026-04-18 06:10 -6.57345 107.49419 25923 ft 421 kts 97°
2026-04-18 06:10 -6.57690 107.52350 25925 ft 420 kts 94°
2026-04-18 06:11 -6.57944 107.55244 25927 ft 421 kts 94°
2026-04-18 06:11 -6.58197 107.58182 25929 ft 421 kts 94°
2026-04-18 06:11 -6.58469 107.61108 25929 ft 421 kts 95°
2026-04-18 06:11 -6.58762 107.64039 25927 ft 421 kts 95°
2026-04-18 06:12 -6.59071 107.66959 25927 ft 421 kts 95°
2026-04-18 06:12 -6.59397 107.69905 25927 ft 421 kts 95°
2026-04-18 06:12 -6.59729 107.72813 25928 ft 420 kts 95°
2026-04-18 06:12 -6.60070 107.75745 25924 ft 421 kts 96°
2026-04-18 06:13 -6.60411 107.78642 25921 ft 420 kts 96°
2026-04-18 06:13 -6.60756 107.81576 25920 ft 419 kts 96°
2026-04-18 06:13 -6.61099 107.84463 25922 ft 421 kts 96°
2026-04-18 06:13 -6.61448 107.87405 25918 ft 420 kts 96°
2026-04-18 06:14 -6.61792 107.90309 25917 ft 421 kts 96°
2026-04-18 06:14 -6.62139 107.93219 25916 ft 421 kts 96°
2026-04-18 06:14 -6.62491 107.96172 26142 ft 426 kts 96°
2026-04-18 06:14 -6.62842 107.99123 26656 ft 426 kts 96°
2026-04-18 06:15 -6.63190 108.02089 27036 ft 430 kts 95°
2026-04-18 06:15 -6.63537 108.05080 27419 ft 433 kts 95°
2026-04-18 06:15 -6.63882 108.08054 27811 ft 435 kts 95°
2026-04-18 06:15 -6.64233 108.11079 28177 ft 439 kts 95°
2026-04-18 06:16 -6.64590 108.14146 28540 ft 441 kts 95°
2026-04-18 06:16 -6.64950 108.17222 28912 ft 444 kts 95°
2026-04-18 06:16 -6.65310 108.20301 29235 ft 448 kts 95°
2026-04-18 06:16 -6.65678 108.23440 29584 ft 451 kts 95°
2026-04-18 06:17 -6.66042 108.26550 29907 ft 454 kts 96°
2026-04-18 06:17 -6.66409 108.29691 30268 ft 456 kts 96°
2026-04-18 06:17 -6.66783 108.32881 30812 ft 454 kts 96°
2026-04-18 06:17 -6.67148 108.36002 31295 ft 453 kts 96°
2026-04-18 06:18 -6.67512 108.39117 31696 ft 453 kts 96°
2026-04-18 06:18 -6.67884 108.42296 32060 ft 454 kts 96°
2026-04-18 06:18 -6.68249 108.45416 32445 ft 455 kts 96°
2026-04-18 06:18 -6.68618 108.48568 32898 ft 454 kts 97°
2026-04-18 06:19 -6.68989 108.51740 33408 ft 452 kts 96°
2026-04-18 06:19 -6.69353 108.54845 33903 ft 450 kts 96°
2026-04-18 06:19 -6.69734 108.57976 34386 ft 449 kts 97°
2026-04-18 06:19 -6.70166 108.61034 34858 ft 447 kts 98°
2026-04-18 06:20 -6.70639 108.64108 35336 ft 444 kts 98°
2026-04-18 06:20 -6.71131 108.67211 35697 ft 445 kts 99°
2026-04-18 06:20 -6.71623 108.70280 36022 ft 445 kts 98°
2026-04-18 06:20 -6.72116 108.73367 36364 ft 445 kts 98°
2026-04-18 06:21 -6.72604 108.76439 36682 ft 446 kts 98°
2026-04-18 06:21 -6.73092 108.79536 36847 ft 448 kts 98°
2026-04-18 06:21 -6.73574 108.82628 36845 ft 447 kts 98°
2026-04-18 06:22 -6.74522 108.88758 36848 ft 443 kts 98°
2026-04-18 06:22 -6.75472 108.94933 36847 ft 444 kts 98°
2026-04-18 06:23 -6.76409 109.01045 36847 ft 443 kts 98°
2026-04-18 06:23 -6.77350 109.07177 36845 ft 443 kts 98°
2026-04-18 06:24 -6.78284 109.13283 36846 ft 443 kts 98°
2026-04-18 06:24 -6.79221 109.19447 36849 ft 444 kts 98°
2026-04-18 06:25 -6.80153 109.25562 36848 ft 444 kts 98°
2026-04-18 06:25 -6.81090 109.31698 36852 ft 444 kts 98°
2026-04-18 06:26 -6.82026 109.37839 36852 ft 444 kts 98°
2026-04-18 06:26 -6.82964 109.44009 36855 ft 443 kts 98°
2026-04-18 06:27 -6.83894 109.50108 36856 ft 443 kts 98°
2026-04-18 06:27 -6.84830 109.56271 36862 ft 444 kts 98°
2026-04-18 06:28 -6.85762 109.62384 36866 ft 443 kts 98°
2026-04-18 06:28 -6.86695 109.68536 36868 ft 444 kts 97°
2026-04-18 06:29 -6.87622 109.74666 36863 ft 444 kts 98°
2026-04-18 06:29 -6.88551 109.80812 36865 ft 443 kts 98°
2026-04-18 06:30 -6.89478 109.86945 36868 ft 443 kts 98°
2026-04-18 06:30 -6.90407 109.93087 36870 ft 444 kts 98°
2026-04-18 06:31 -6.91328 109.99202 36875 ft 443 kts 97°
2026-04-18 06:31 -6.92243 110.05338 36868 ft 443 kts 97°
2026-04-18 06:32 -6.93172 110.11487 36857 ft 444 kts 97°
2026-04-18 06:32 -6.94086 110.17606 36856 ft 442 kts 98°
2026-04-18 06:33 -6.95000 110.23685 36856 ft 442 kts 98°
2026-04-18 06:33 -6.95933 110.29839 36854 ft 443 kts 98°
2026-04-18 06:34 -6.96928 110.35980 36853 ft 443 kts 99°
2026-04-18 06:34 -6.97521 110.42140 36853 ft 443 kts 91°
2026-04-18 06:35 -6.97567 110.48322 36851 ft 443 kts 89°
2026-04-18 06:35 -6.97568 110.54545 36850 ft 443 kts 89°
2026-04-18 06:36 -6.97618 110.60735 36845 ft 443 kts 90°
2026-04-18 06:36 -6.97701 110.66966 36848 ft 443 kts 90°
2026-04-18 06:37 -6.97794 110.73165 36838 ft 444 kts 90°
2026-04-18 06:37 -6.97898 110.79359 36844 ft 443 kts 90°
2026-04-18 06:38 -6.98008 110.85603 36844 ft 444 kts 90°
2026-04-18 06:38 -6.98116 110.91793 36844 ft 444 kts 90°
2026-04-18 06:39 -6.98226 110.97993 36843 ft 443 kts 90°
2026-04-18 06:39 -6.98332 111.04191 36858 ft 443 kts 90°
2026-04-18 06:40 -6.98435 111.10422 36864 ft 443 kts 90°
2026-04-18 06:40 -6.98541 111.16591 36860 ft 443 kts 90°
2026-04-18 06:41 -6.98647 111.22805 36861 ft 443 kts 90°
2026-04-18 06:41 -6.98747 111.28996 36852 ft 443 kts 90°
2026-04-18 06:42 -6.98849 111.35211 36847 ft 443 kts 90°
2026-04-18 06:42 -6.99214 111.41355 36844 ft 442 kts 98°
2026-04-18 06:43 -7.00520 111.47382 36848 ft 442 kts 103°
2026-04-18 06:43 -7.02151 111.53386 36844 ft 442 kts 105°
2026-04-18 06:44 -7.03840 111.59300 36843 ft 442 kts 105°
2026-04-18 06:44 -7.05555 111.65277 36842 ft 442 kts 104°
2026-04-18 06:45 -7.07248 111.71201 36839 ft 443 kts 104°
2026-04-18 06:45 -7.08947 111.77177 36838 ft 444 kts 104°
2026-04-18 06:46 -7.10644 111.83173 36842 ft 444 kts 104°
2026-04-18 06:46 -7.12327 111.89129 36844 ft 443 kts 104°
2026-04-18 06:47 -7.14017 111.95108 36844 ft 442 kts 104°
2026-04-18 06:47 -7.15698 112.01065 36845 ft 444 kts 104°
2026-04-18 06:48 -7.17380 112.07026 36845 ft 445 kts 104°
2026-04-18 06:48 -7.19074 112.13033 36852 ft 444 kts 104°
2026-04-18 06:49 -7.20747 112.18976 36861 ft 444 kts 104°
2026-04-18 06:49 -7.22437 112.24979 36862 ft 443 kts 104°
2026-04-18 06:50 -7.24106 112.30907 36862 ft 442 kts 104°
2026-04-18 06:50 -7.25787 112.36871 36859 ft 443 kts 104°
2026-04-18 06:51 -7.27469 112.42841 36855 ft 443 kts 104°
2026-04-18 06:51 -7.29150 112.48823 36859 ft 443 kts 104°
2026-04-18 06:52 -7.30820 112.54761 36863 ft 443 kts 104°
2026-04-18 06:52 -7.32493 112.60716 36860 ft 442 kts 104°
2026-04-18 06:53 -7.34175 112.66708 36861 ft 442 kts 104°
2026-04-18 06:53 -7.35847 112.72676 36862 ft 442 kts 104°
2026-04-18 06:54 -7.37495 112.78641 36861 ft 442 kts 103°
2026-04-18 06:54 -7.38868 112.84682 36857 ft 442 kts 100°
2026-04-18 06:55 -7.40107 112.90736 36863 ft 442 kts 100°
2026-04-18 06:55 -7.41352 112.96804 36863 ft 441 kts 100°
2026-04-18 06:56 -7.42617 113.02850 36867 ft 443 kts 100°
2026-04-18 06:56 -7.43912 113.08995 36863 ft 453 kts 101°
2026-04-18 06:57 -7.45228 113.15227 36862 ft 444 kts 100°
2026-04-18 06:57 -7.47153 113.24213 36869 ft 442 kts 101°
2026-04-18 06:58 -7.48438 113.30253 36865 ft 442 kts 100°
2026-04-18 06:58 -7.49725 113.36326 36860 ft 440 kts 100°
2026-04-18 06:59 -7.51007 113.42345 36869 ft 440 kts 100°
2026-04-18 06:59 -7.52285 113.48364 36865 ft 441 kts 100°
2026-04-18 07:00 -7.53566 113.54406 36866 ft 440 kts 100°
2026-04-18 07:00 -7.54849 113.60454 36870 ft 441 kts 101°
2026-04-18 07:01 -7.56133 113.66509 36872 ft 440 kts 101°
2026-04-18 07:01 -7.57419 113.72573 36873 ft 440 kts 101°
2026-04-18 07:02 -7.58695 113.78591 36874 ft 440 kts 100°
2026-04-18 07:02 -7.59973 113.84635 36890 ft 439 kts 100°
2026-04-18 07:03 -7.61240 113.90640 36887 ft 440 kts 100°
2026-04-18 07:03 -7.62507 113.96664 36883 ft 441 kts 100°
2026-04-18 07:04 -7.63716 114.02419 36885 ft 440 kts 101°
2026-04-18 07:04 -7.64989 114.08455 36881 ft 440 kts 101°
2026-04-18 07:05 -7.66256 114.14452 36884 ft 439 kts 101°
2026-04-18 07:05 -7.67524 114.20503 36883 ft 439 kts 100°
2026-04-18 07:06 -7.68771 114.26495 36878 ft 439 kts 100°
2026-04-18 07:06 -7.70033 114.32507 36874 ft 439 kts 100°
2026-04-18 07:07 -7.71307 114.38533 36872 ft 438 kts 101°
2026-04-18 07:07 -7.72592 114.44549 36868 ft 439 kts 101°
2026-04-18 07:08 -7.73879 114.50529 36865 ft 438 kts 101°
2026-04-18 07:08 -7.75172 114.56548 36860 ft 438 kts 101°
2026-04-18 07:09 -7.76449 114.62542 36862 ft 437 kts 101°
2026-04-18 07:09 -7.77725 114.68541 36860 ft 438 kts 101°
2026-04-18 07:10 -7.79006 114.74563 36853 ft 437 kts 100°
2026-04-18 07:10 -7.80286 114.80590 36847 ft 437 kts 100°
2026-04-18 07:11 -7.81555 114.86556 36841 ft 436 kts 100°
2026-04-18 07:11 -7.82818 114.92519 36831 ft 437 kts 100°
2026-04-18 07:12 -7.84089 114.98515 36827 ft 437 kts 100°
2026-04-18 07:12 -7.85358 115.04514 36823 ft 438 kts 100°
2026-04-18 07:13 -7.86636 115.10549 36822 ft 437 kts 101°
2026-04-18 07:13 -7.87897 115.16501 36822 ft 435 kts 101°
2026-04-18 07:14 -7.89165 115.22492 36822 ft 436 kts 101°
2026-04-18 07:14 -7.90417 115.28428 36822 ft 435 kts 101°
2026-04-18 07:15 -7.91685 115.34427 36828 ft 437 kts 101°
2026-04-18 07:15 -7.92943 115.40380 36839 ft 436 kts 101°
2026-04-18 07:16 -7.94209 115.46397 36843 ft 437 kts 101°
2026-04-18 07:16 -7.95466 115.52367 36843 ft 436 kts 101°
2026-04-18 07:17 -7.96726 115.58352 36843 ft 436 kts 101°
2026-04-18 07:17 -7.97988 115.64354 36843 ft 437 kts 101°
2026-04-18 07:18 -7.99278 115.70340 36843 ft 437 kts 102°
2026-04-18 07:18 -8.00865 115.76202 36843 ft 436 kts 105°
2026-04-18 07:19 -8.02596 115.82117 36843 ft 437 kts 105°
2026-04-18 07:19 -8.04302 115.87981 36844 ft 436 kts 105°
2026-04-18 07:20 -8.05990 115.93848 36844 ft 437 kts 105°
2026-04-18 07:20 -8.07670 115.99741 36843 ft 438 kts 105°
2026-04-18 07:21 -8.09344 116.05644 36846 ft 437 kts 104°
2026-04-18 07:21 -8.11007 116.11518 36846 ft 436 kts 104°
2026-04-18 07:22 -8.12676 116.17438 36840 ft 436 kts 105°
2026-04-18 07:22 -8.14337 116.23338 36838 ft 437 kts 104°
2026-04-18 07:23 -8.15993 116.29219 36836 ft 437 kts 104°
2026-04-18 07:23 -8.17650 116.35113 36835 ft 437 kts 104°
2026-04-18 07:24 -8.19315 116.41039 36835 ft 437 kts 104°
2026-04-18 07:24 -8.20958 116.46908 36837 ft 436 kts 104°
2026-04-18 07:25 -8.22610 116.52824 36839 ft 436 kts 104°
2026-04-18 07:25 -8.24249 116.58684 36835 ft 438 kts 104°
2026-04-18 07:26 -8.25915 116.64620 36836 ft 436 kts 104°
2026-04-18 07:26 -8.27566 116.70496 36834 ft 437 kts 104°
2026-04-18 07:27 -8.29222 116.76411 36832 ft 437 kts 104°
2026-04-18 07:27 -8.30879 116.82318 36840 ft 437 kts 104°
2026-04-18 07:28 -8.32527 116.88193 36841 ft 436 kts 104°
2026-04-18 07:28 -8.34191 116.94130 36833 ft 438 kts 104°
2026-04-18 07:29 -8.35835 117.00002 36841 ft 437 kts 104°
2026-04-18 07:29 -8.37483 117.05907 36843 ft 438 kts 104°
2026-04-18 07:30 -8.39138 117.11836 36859 ft 438 kts 104°
2026-04-18 07:30 -8.40780 117.17737 36874 ft 437 kts 104°
2026-04-18 07:31 -8.42426 117.23635 36892 ft 438 kts 103°
2026-04-18 07:31 -8.44072 117.29540 36898 ft 437 kts 104°
2026-04-18 07:32 -8.45744 117.35429 36887 ft 438 kts 105°
2026-04-18 07:32 -8.47307 117.41391 36881 ft 438 kts 97°
2026-04-18 07:33 -8.47804 117.47501 36870 ft 436 kts 90°
2026-04-18 07:33 -8.47948 117.53631 36853 ft 436 kts 89°
2026-04-18 07:34 -8.48128 117.59765 36852 ft 436 kts 90°
2026-04-18 07:34 -8.48362 117.65841 36847 ft 437 kts 90°
2026-04-18 07:35 -8.48632 117.71981 36848 ft 436 kts 90°
2026-04-18 07:35 -8.48912 117.78088 36848 ft 436 kts 90°
2026-04-18 07:36 -8.49198 117.84255 36849 ft 438 kts 91°
2026-04-18 07:36 -8.49481 117.90359 36855 ft 437 kts 91°
2026-04-18 07:37 -8.49768 117.96513 36853 ft 438 kts 90°
2026-04-18 07:37 -8.50057 118.02669 36851 ft 438 kts 91°
2026-04-18 07:38 -8.50347 118.08798 36862 ft 438 kts 90°
2026-04-18 07:38 -8.50631 118.14960 36867 ft 438 kts 90°
2026-04-18 07:39 -8.50918 118.21106 36871 ft 438 kts 90°
2026-04-18 07:39 -8.51087 118.27193 36439 ft 426 kts 88°
2026-04-18 07:40 -8.51165 118.30165 35904 ft 420 kts 90°
2026-04-18 07:40 -8.51313 118.33064 35607 ft 408 kts 91°
2026-04-18 07:40 -8.51482 118.35897 35349 ft 397 kts 91°
2026-04-18 07:40 -8.51638 118.38637 35030 ft 386 kts 89°
2026-04-18 07:41 -8.51734 118.41305 34796 ft 375 kts 90°
2026-04-18 07:41 -8.51881 118.43932 34326 ft 369 kts 91°
2026-04-18 07:41 -8.52042 118.46501 33737 ft 367 kts 91°
2026-04-18 07:41 -8.52201 118.49044 33236 ft 363 kts 90°
2026-04-18 07:42 -8.52351 118.51592 32706 ft 359 kts 90°
2026-04-18 07:42 -8.52489 118.54075 32196 ft 356 kts 90°
2026-04-18 07:42 -8.52620 118.56575 31720 ft 352 kts 89°
2026-04-18 07:42 -8.52742 118.59019 31202 ft 349 kts 89°
2026-04-18 07:43 -8.52857 118.61451 30714 ft 346 kts 89°
2026-04-18 07:43 -8.52981 118.63872 30167 ft 345 kts 90°
2026-04-18 07:43 -8.53144 118.66260 29708 ft 341 kts 89°
2026-04-18 07:43 -8.53202 118.68653 29203 ft 338 kts 84°
2026-04-18 07:44 -8.52966 118.71002 28701 ft 333 kts 76°
2026-04-18 07:44 -8.52491 118.73257 28203 ft 331 kts 73°
2026-04-18 07:44 -8.51927 118.75496 27729 ft 328 kts 72°
2026-04-18 07:44 -8.51351 118.77705 27256 ft 326 kts 72°
2026-04-18 07:45 -8.50785 118.79926 26796 ft 324 kts 73°
2026-04-18 07:45 -8.50249 118.82113 26327 ft 322 kts 73°
2026-04-18 07:45 -8.49729 118.84298 25860 ft 320 kts 74°
2026-04-18 07:45 -8.49217 118.86484 25412 ft 318 kts 74°
2026-04-18 07:46 -8.48709 118.88663 24950 ft 316 kts 74°
2026-04-18 07:46 -8.48211 118.90797 24490 ft 315 kts 74°
2026-04-18 07:46 -8.47712 118.92946 24032 ft 313 kts 75°
2026-04-18 07:46 -8.47219 118.95094 23581 ft 311 kts 75°
2026-04-18 07:47 -8.46738 118.97192 23151 ft 309 kts 75°
2026-04-18 07:47 -8.46246 118.99327 22688 ft 308 kts 75°
2026-04-18 07:47 -8.45762 119.01417 22265 ft 306 kts 75°
2026-04-18 07:47 -8.45279 119.03499 21850 ft 304 kts 75°
2026-04-18 07:48 -8.44807 119.05539 21480 ft 301 kts 75°
2026-04-18 07:48 -8.44332 119.07587 21083 ft 299 kts 75°
2026-04-18 07:48 -8.43863 119.09619 20722 ft 296 kts 75°
2026-04-18 07:48 -8.43398 119.11629 20332 ft 294 kts 75°
2026-04-18 07:49 -8.42931 119.13645 19945 ft 292 kts 75°
2026-04-18 07:49 -8.42473 119.15633 19566 ft 289 kts 75°
2026-04-18 07:49 -8.42023 119.17582 19196 ft 286 kts 75°
2026-04-18 07:49 -8.41573 119.19529 18784 ft 285 kts 75°
2026-04-18 07:50 -8.41126 119.21482 18392 ft 283 kts 75°
2026-04-18 07:50 -8.40694 119.23390 18003 ft 281 kts 75°
2026-04-18 07:50 -8.40255 119.25315 17615 ft 278 kts 75°
2026-04-18 07:50 -8.39823 119.27193 17238 ft 276 kts 75°
2026-04-18 07:51 -8.39388 119.29067 16867 ft 274 kts 75°
2026-04-18 07:51 -8.38959 119.30931 16516 ft 270 kts 75°
2026-04-18 07:51 -8.38545 119.32737 16416 ft 257 kts 75°
2026-04-18 07:51 -8.38150 119.34453 16300 ft 246 kts 75°
2026-04-18 07:52 -8.37766 119.36116 16001 ft 243 kts 75°
2026-04-18 07:52 -8.37386 119.37781 15644 ft 242 kts 75°
2026-04-18 07:52 -8.36988 119.39417 15320 ft 241 kts 71°
2026-04-18 07:52 -8.36411 119.40989 14964 ft 240 kts 66°
2026-04-18 07:53 -8.35736 119.42540 14614 ft 239 kts 65°
2026-04-18 07:53 -8.35065 119.44062 14315 ft 236 kts 65°
2026-04-18 07:53 -8.34415 119.45576 13994 ft 234 kts 66°
2026-04-18 07:53 -8.33779 119.47088 13649 ft 234 kts 66°
2026-04-18 07:54 -8.33156 119.48582 13320 ft 232 kts 66°
2026-04-18 07:54 -8.32526 119.50091 12991 ft 231 kts 66°
2026-04-18 07:54 -8.31906 119.51582 12644 ft 230 kts 66°
2026-04-18 07:54 -8.31288 119.53071 12293 ft 231 kts 66°
2026-04-18 07:55 -8.30665 119.54562 11924 ft 231 kts 66°
2026-04-18 07:55 -8.30043 119.56049 11596 ft 230 kts 66°
2026-04-18 07:55 -8.29428 119.57525 11275 ft 229 kts 66°
2026-04-18 07:55 -8.28806 119.59014 10910 ft 230 kts 66°
2026-04-18 07:56 -8.28184 119.60501 10602 ft 228 kts 66°
2026-04-18 07:56 -8.27569 119.61968 10256 ft 229 kts 66°
2026-04-18 07:56 -8.26949 119.63451 9920 ft 228 kts 66°
2026-04-18 07:56 -8.26329 119.64937 9581 ft 228 kts 66°
2026-04-18 07:57 -8.25703 119.66434 9253 ft 228 kts 66°
2026-04-18 07:57 -8.25085 119.67916 8944 ft 227 kts 66°
2026-04-18 07:57 -8.24477 119.69369 8629 ft 226 kts 66°
2026-04-18 07:57 -8.23857 119.70851 8326 ft 225 kts 66°
2026-04-18 07:58 -8.22644 119.73759 7730 ft 223 kts 66°
2026-04-18 07:58 -8.22043 119.75192 7444 ft 221 kts 66°
2026-04-18 07:58 -8.21442 119.76621 7141 ft 220 kts 66°
2026-04-18 07:59 -8.20853 119.78027 6848 ft 219 kts 66°
2026-04-18 07:59 -8.20279 119.79458 6542 ft 218 kts 71°
2026-04-18 07:59 -8.20078 119.80952 6225 ft 217 kts 94°
2026-04-18 07:59 -8.20403 119.82426 5981 ft 214 kts 104°
2026-04-18 08:00 -8.20836 119.83866 5662 ft 215 kts 104°
2026-04-18 08:00 -8.21263 119.85309 5408 ft 212 kts 107°
2026-04-18 08:00 -8.21949 119.86625 5252 ft 212 kts 128°
2026-04-18 08:00 -8.23122 119.87484 5059 ft 208 kts 155°
2026-04-18 08:01 -8.24544 119.87752 4696 ft 213 kts 177°
2026-04-18 08:01 -8.26022 119.87510 4311 ft 218 kts 191°
2026-04-18 08:01 -8.27499 119.87084 3909 ft 220 kts 193°
2026-04-18 08:01 -8.28969 119.86659 3504 ft 221 kts 192°
2026-04-18 08:02 -8.30500 119.86413 3108 ft 218 kts 175°
2026-04-18 08:02 -8.31968 119.86619 2814 ft 212 kts 165°
2026-04-18 08:02 -8.33414 119.86906 2539 ft 207 kts 167°
2026-04-18 08:02 -8.34815 119.87130 2283 ft 197 kts 169°
2026-04-18 08:03 -8.36114 119.87307 2089 ft 179 kts 171°
2026-04-18 08:03 -8.37289 119.87455 1944 ft 159 kts 171°
2026-04-18 08:03 -8.38348 119.87584 1833 ft 145 kts 171°
2026-04-18 08:03 -8.39343 119.87708 1855 ft 145 kts 171°
2026-04-18 08:04 -8.40368 119.87840 1747 ft 148 kts 171°
2026-04-18 08:04 -8.41388 119.87980 1411 ft 149 kts 169°
2026-04-18 08:04 -8.42396 119.88116 1308 ft 141 kts 169°
2026-04-18 08:04 -8.43390 119.88251 1365 ft 146 kts 169°
2026-04-18 08:05 -8.44398 119.88425 1301 ft 147 kts 167°
2026-04-18 08:05 -8.45425 119.88528 999 ft 148 kts 173°
2026-04-18 08:05 -8.46457 119.88615 660 ft 147 kts 171°
2026-04-18 08:05 -8.47480 119.88765 322 ft 145 kts 169°
2026-04-18 08:06 -8.48380 119.88897 277 ft 100 kts 172°
2026-04-18 08:06 -8.48863 119.88959 258 ft 41 kts 175°
2026-04-18 08:06 -8.49045 119.88984 251 ft 12 kts 172°
2026-04-18 08:06 -8.49080 119.88989 250 ft 10 kts 172°
2026-04-18 08:07 -8.49183 119.89024 248 ft 11 kts 145°
2026-04-18 08:07 -8.49235 119.89008 247 ft 10 kts 273°
2026-04-18 08:07 -8.49245 119.88940 249 ft 8 kts 261°
2026-04-18 08:07 -8.49234 119.88899 250 ft 4 kts 327°
2026-04-18 08:08 -8.49208 119.88893 251 ft 5 kts 351°
2026-04-18 08:08 -8.49152 119.88887 252 ft 10 kts 353°
2026-04-18 08:08 -8.49052 119.88874 254 ft 17 kts 353°
2026-04-18 08:08 -8.48930 119.88858 259 ft 9 kts 351°
2026-04-18 08:09 -8.48908 119.88855 260 ft 1 kts 351°
2026-04-18 08:09 -8.48889 119.88852 260 ft 6 kts 351°
2026-04-18 08:09 -8.48837 119.88844 262 ft 3 kts 347°
2026-04-18 08:09 -8.48826 119.88837 263 ft 0 kts 310°
2026-04-18 08:10 -8.48822 119.88821 264 ft 4 kts 270°
2026-04-18 08:10 -8.48823 119.88802 265 ft 0 kts 265°